Time,TemperatureF,DewpointF,PressureIn,WindDirection,WindDirectionDegrees,WindSpeedMPH,WindSpeedGustMPH,Humidity,HourlyPrecipIn,Conditions,Clouds,dailyrainin,SolarRadiationWatts/m^2,SoftwareType,DateUTC
2013-02-21 00:11:00,34.0,33.0,-100.00,SE,133,2.0,3.0,96,-99.99,,,0.00,0.000000,,2013-02-21 08:11:00,
2013-02-21 01:11:00,35.0,34.0,-100.00,West,274,0.0,1.0,96,-99.99,,,0.00,0.000000,,2013-02-21 09:11:00,
2013-02-21 02:11:00,34.0,33.0,-100.00,ENE,67,1.0,4.0,96,-99.99,,,0.00,0.000000,,2013-02-21 10:11:00,
2013-02-21 03:11:00,33.0,32.0,-100.00,SE,130,2.0,3.0,97,-99.99,,,0.00,0.000000,,2013-02-21 11:11:00,
2013-02-21 04:11:00,33.0,33.0,-100.00,SE,124,1.0,2.0,97,-99.99,,,0.00,0.000000,,2013-02-21 12:11:00,
2013-02-21 05:12:00,34.0,33.0,-100.00,NNE,29,2.0,3.0,97,-99.99,,,0.00,0.000000,,2013-02-21 13:12:00,
2013-02-21 06:11:00,33.0,32.0,-100.00,SSE,168,2.0,3.0,97,-99.99,,,0.00,0.000000,,2013-02-21 14:11:00,
2013-02-21 07:12:00,34.0,34.0,-100.00,WNW,300,1.0,2.0,97,-99.99,,,0.00,0.000000,,2013-02-21 15:12:00,
2013-02-21 08:12:00,34.0,33.0,-100.00,SE,132,2.0,3.0,97,-99.99,,,0.00,3.140000,,2013-02-21 16:12:00,
2013-02-21 09:11:00,36.0,35.0,-100.00,SE,146,3.0,5.0,97,-99.99,,,0.00,59.389999,,2013-02-21 17:11:00,
2013-02-21 10:11:00,40.0,37.0,-100.00,NW,323,2.0,5.0,88,-99.99,,,0.00,139.699997,,2013-02-21 18:11:00,
2013-02-21 12:11:00,43.0,36.0,-100.00,NW,313,5.0,9.0,76,-99.99,,,0.00,231.279999,,2013-02-21 20:11:00,
2013-02-21 13:11:00,45.0,37.0,-100.00,WNW,302,5.0,10.0,71,-99.99,,,0.00,401.769989,,2013-02-21 21:11:00,
2013-02-21 14:11:00,45.0,37.0,-100.00,NW,307,4.0,11.0,74,-99.99,,,0.00,321.929993,,2013-02-21 22:11:00,
2013-02-21 15:11:00,44.0,37.0,-100.00,NNW,333,5.0,8.0,77,-99.99,,,0.00,110.639999,,2013-02-21 23:11:00,
2013-02-21 16:11:00,45.0,32.0,-100.00,SW,226,6.0,13.0,59,-99.99,,,0.00,84.029999,,2013-02-22 00:11:00,
2013-02-21 17:11:00,43.0,33.0,-100.00,SW,220,6.0,14.0,66,-99.99,,,0.00,82.279999,,2013-02-22 01:11:00,
2013-02-21 18:11:00,42.0,34.0,-100.00,SSE,157,1.0,3.0,71,-99.99,,,0.00,10.690000,,2013-02-22 02:11:00,
2013-02-21 19:11:00,41.0,35.0,-100.00,NE,51,2.0,4.0,77,-99.99,,,0.00,0.120000,,2013-02-22 03:11:00,
2013-02-21 20:11:00,41.0,35.0,-100.00,ENE,67,1.0,3.0,81,-99.99,,,0.00,0.120000,,2013-02-22 04:11:00,
2013-02-21 21:12:00,40.0,36.0,-100.00,NNE,24,2.0,4.0,84,-99.99,,,0.00,0.000000,,2013-02-22 05:12:00,
2013-02-21 22:11:00,40.0,36.0,-100.00,NNW,331,1.0,3.0,87,-99.99,,,0.00,0.000000,,2013-02-22 06:11:00,
2013-02-21 23:11:00,38.0,36.0,-100.00,South,178,1.0,3.0,90,-99.99,,,0.00,0.000000,,2013-02-22 07:11:00,